FW3784 Weather Reports


time (UTC)temp
C
wind
direction
speed
KPH
gust
KPH
rain 1hr
cm
rain 24hr
cm
rain mn
cm
humidity
%
barometer
mb
20260507181534 15 70 0.0 0.0 0.00 0.56 0.03 37 1005.4
20260507180036 15 273 0.0 0.0 0.00 0.56 0.03 38 1005.4
20260507174540 15 284 0.0 0.0 0.00 0.69 0.03 41 1005.4
20260507173033 13 141 0.0 0.0 0.00 0.69 0.03 44 1005.6
20260507171531 13 340 0.0 0.0 0.00 0.69 0.03 46 1005.9
20260507170040 14 92 0.0 0.0 0.00 0.69 0.03 47 1006.0
20260507164526 13 46 0.0 0.0 0.00 0.69 0.03 50 1006.2
20260507163025 13 355 0.0 0.0 0.00 0.69 0.03 48 1006.3
20260507161523 13 65 0.0 0.0 0.00 0.69 0.03 47 1006.4
20260507160021 12 144 0.0 0.0 0.00 0.69 0.03 59 1006.7
20260507154521 12 67 0.0 1.6 0.00 0.69 0.03 59 1006.7
20260507153021 12 44 0.0 0.0 0.00 0.69 0.03 61 1006.7
20260507151517 12 73 0.0 0.0 0.00 0.69 0.03 62 1007.0
20260507150016 11 49 0.0 0.0 0.00 0.69 0.03 67 1007.1
20260507144514 11 355 0.0 0.0 0.00 0.69 0.03 66 1007.1
20260507143013 11 220 0.0 0.0 0.00 0.69 0.03 70 1007.0
20260507141512 10 49 0.0 0.0 0.00 0.69 0.03 73 1007.1
20260507140012 10 33 0.0 0.0 0.00 0.69 0.03 70 1007.1
20260507134514 11 283 0.0 0.0 0.00 0.69 0.03 67 1007.1
20260507133009 11 275 0.0 0.0 0.00 0.69 0.03 69 1007.2
20260507131510 10 69 0.0 0.0 0.00 0.69 0.03 72 1007.3
20260507130110 10 37 0.0 0.0 0.00 0.69 0.03 78 1007.3
20260507124558 9 39 0.0 0.0 0.00 0.69 0.03 78 1007.2
20260507123057 8 75 0.0 0.0 0.00 0.69 0.03 79 1007.2
20260507121605 8 70 0.0 0.0 0.00 0.69 0.03 83 1007.4
20260507120059 7 69 0.0 0.0 0.00 0.69 0.03 90 1007.5
20260507114604 6 360 0.0 0.0 0.00 0.69 0.03 95 1007.4
20260507113052 6 360 0.0 0.0 0.00 0.69 0.03 95 1007.4
20260507111551 6 360 0.0 0.0 0.00 0.69 0.03 95 1007.3
20260507110052 5 360 0.0 0.0 0.00 0.69 0.03 94 1007.3
20260507104549 5 360 0.0 0.0 0.00 0.69 0.03 94 1006.9
20260507103048 5 360 0.0 0.0 0.00 0.69 0.03 93 1006.9
20260507101547 5 360 0.0 0.0 0.00 0.69 0.03 93 1007.2
20260507100045 6 360 0.0 0.0 0.00 0.69 0.03 93 1007.2
20260507094546 6 360 0.0 0.0 0.00 0.69 0.03 94 1007.2
20260507093049 6 360 0.0 0.0 0.00 0.69 0.03 94 1007.3
20260507091538 6 360 0.0 0.0 0.00 0.69 0.03 94 1006.8
20260507090039 6 360 0.0 0.0 0.00 0.69 0.03 94 1006.6
20260507084535 6 360 0.0 0.0 0.00 0.69 0.03 94 1006.6
20260507083035 6 360 0.0 0.0 0.00 0.69 0.03 94 1006.5
20260507081543 6 360 0.0 0.0 0.00 0.69 0.03 94 1006.6
20260507080032 6 360 0.0 0.0 0.00 0.69 0.03 93 1006.3
20260507074549 7 360 0.0 0.0 0.00 0.69 0.03 93 1006.5
20260507073029 7 360 0.0 0.0 0.00 0.69 0.03 93 1006.0
20260507071529 7 360 0.0 0.0 0.00 0.69 0.03 93 1005.9
20260507070027 7 360 0.0 0.0 0.00 0.69 0.03 93 1006.2
20260507064525 7 360 0.0 0.0 0.03 0.69 0.03 93 1006.1
20260507063026 7 360 0.0 0.0 0.03 0.69 0.03 93 1006.1
20260507061520 7 360 0.0 0.0 0.03 0.69 0.03 93 1005.8
20260507060025 7 72 0.0 0.0 0.03 0.69 0.03 93 1005.8
20260507054519 7 347 0.0 0.0 0.00 0.66 0.00 93 1005.9
20260507053015 8 347 0.0 0.0 0.00 0.66 0.00 93 1005.6
20260507051512 8 347 0.0 0.0 0.00 0.66 0.00 93 1005.4
20260507050024 8 347 0.0 0.0 0.00 0.66 0.00 92 1005.5
20260507044509 8 347 0.0 0.0 0.00 0.66 0.00 92 1005.5
20260507043006 8 347 0.0 0.0 0.00 0.66 0.00 92 1005.5
20260507041502 8 313 0.0 0.0 0.00 0.66 0.00 92 1005.5
20260507040101 8 313 0.0 0.0 0.03 0.66 0.00 91 1005.5
20260507034602 9 325 0.0 0.0 0.03 0.66 0.66 91 1005.2
20260507033104 9 324 0.0 0.0 0.03 0.66 0.66 91 1005.5
20260507031606 10 360 0.0 0.0 0.03 0.66 0.66 91 1005.4
20260507030057 10 337 0.0 0.0 0.00 0.64 0.64 90 1005.4
20260507024552 10 24 0.0 0.0 0.00 0.64 0.64 90 1005.3
20260507023059 11 329 0.0 0.0 0.00 0.64 0.64 89 1005.1
20260507021546 11 63 0.0 0.0 0.03 0.64 0.64 90 1004.9
20260507020048 11 282 0.0 0.0 0.03 0.64 0.64 90 1004.8
20260507014550 12 42 0.0 0.0 0.05 0.64 0.64 90 1004.7
20260507013045 12 53 0.0 0.0 0.08 0.64 0.64 90 1004.4
20260507011543 13 53 0.0 0.0 0.10 0.61 0.61 91 1004.3
20260507010044 13 53 0.0 0.0 0.10 0.61 0.61 91 1004.3
20260507004541 13 53 0.0 0.0 0.13 0.58 0.58 91 1004.1
20260507003043 14 303 0.0 0.0 0.13 0.56 0.56 93 1003.8
20260507001541 15 90 0.0 0.0 0.08 0.51 0.51 93 1003.6
20260507000042 15 90 0.0 0.0 0.08 0.51 0.51 93 1003.5
20260506234540 15 90 0.0 0.0 0.03 0.46 0.46 93 1003.4
20260506233045 15 90 0.0 0.0 0.00 0.43 0.43 93 1003.2
20260506231538 15 20 0.0 0.0 0.00 0.43 0.43 93 1003.1
20260506230037 15 62 0.0 0.0 0.00 0.43 0.43 93 1003.1
20260506224537 15 76 0.0 0.0 0.00 0.43 0.43 94 1003.1
20260506223035 15 57 0.0 0.0 0.00 0.43 0.43 94 1003.2
20260506221533 15 51 0.0 0.0 0.00 0.43 0.43 94 1003.4
20260506220033 15 53 0.0 0.0 0.00 0.43 0.43 94 1003.5
20260506214531 14 200 0.0 0.0 0.03 0.43 0.43 93 1003.5
20260506213031 15 25 0.0 1.6 0.03 0.43 0.43 93 1003.6
20260506211528 15 22 0.0 0.0 0.03 0.43 0.43 93 1003.8
20260506210059 15 22 0.0 0.0 0.03 0.43 0.43 93 1003.9
20260506204556 15 22 0.0 0.0 0.08 0.41 0.41 94 1004.0
20260506203054 15 22 0.0 0.0 0.13 0.41 0.41 94 1004.2
20260506201551 15 22 0.0 0.0 0.15 0.41 0.41 93 1004.4
20260506200049 15 22 0.0 0.0 0.18 0.41 0.41 93 1004.4
20260506194548 15 22 0.0 0.0 0.13 0.33 0.33 93 1004.6
20260506193048 15 22 0.0 0.0 0.08 0.28 0.28 93 1004.8
20260506191544 15 89 0.0 0.0 0.08 0.25 0.25 93 1005.0
20260506190044 15 65 0.0 0.0 0.10 0.23 0.23 94 1005.1
20260506184526 15 82 0.0 0.0 0.13 0.20 0.20 94 1005.3
20260506183026 15 47 0.0 0.0 0.15 0.20 0.20 94 1005.3